Location: Newark
(40.9833°N, 0.0333°W)
Time: 19:17:06
(UTC+00:00)

Vanguard 2 Rocket - Pass Details

Date: 04 November 2020
Orbit: 553 x 3326 km, 32.9° (Epoch: 29 November)

Event Time Altitude Azimuth Distance (km) Brightness Sun altitude
Rises 15:56:00 0° 236° (SW) 3,590 12.4 8.8°
Reaches altitude 10° 15:59:26 10° 223° (SW) 2,306 10.8 8.2°
Maximum altitude 16:03:22 23° 171° (S) 1,349 8.1 7.5°
Drops below altitude 10° 16:06:36 10° 117° (ESE) 1,856 8.2 7.0°
Sets 16:09:01 0° 101° (ESE) 2,715 8.9 6.6°
